Wind_Speed
9 10 10 10 11 11 12 13 13 13 13 13 14 13 13 13 13 13 13 13 13 12 12 11 11 10 10 10 10 10 10 10 9 9 10 10 10 11 11 10 10 10 10 11
11 11 11 11 11 11 12 12 13 14 14 14 14 14 14 14 14 14 14 13 14 13 12 12 11 11 11 10 10 10 10 10 11 11 11 11 12 12 11 11 10 11 11 12
12 11 11 11 11 11 12 12 13 13 13 14 15 15 15 15 15 14 14 14 13 13 13 13 13 12 12 12 11 11 11 11 12 12 12 12 12 13 13 12 12 12 12 12
13 12 11 11 11 11 12 12 12 12 13 13 14 16 16 16 15 15 15 14 14 14 14 13 13 13 13 13 13 13 12 12 13 13 13 13 13 13 12 13 13 13 13 13
13 13 12 12 12 12 12 12 12 13 13 14 14 15 16 16 16 16 16 15 16 15 15 15 15 15 14 14 13 13 13 13 13 13 14 14 14 13 13 13 14 14 14 14
14 13 14 14 13 13 13 13 13 14 14 15 15 15 16 16 15 15 15 16 16 16 16 16 16 16 16 15 15 14 14 14 14 14 14 14 14 14 14 15 15 15 15 15
14 14 14 14 14 14 14 13 14 15 15 16 15 16 16 16 16 16 16 16 16 16 16 16 16 16 17 17 17 16 16 16 15 16 16 15 15 15 15 15 15 15 15 15
14 15 14 14 14 14 14 14 15 16 16 16 16 17 17 16 16 16 16 15 15 15 15 16 16 16 16 17 17 17 17 17 17 17 17 17 17 17 16 17 17 16 16 17
15 15 15 15 14 14 15 15 16 16 16 16 17 18 17 17 17 16 16 16 16 15 15 16 16 17 17 18 18 17 17 18 18 18 18 18 19 18 18 18 18 17 17 17
16 16 16 15 15 15 15 15 16 16 17 17 17 18 18 17 17 17 17 17 17 16 16 16 16 17 18 18 18 18 18 18 19 20 20 20 20 19 19 19 19 18 18 18
16 16 16 16 16 15 15 16 16 17 17 18 18 18 18 18 17 17 17 17 17 17 17 17 17 18 17 18 18 19 19 19 19 20 20 20 21 21 21 20 20 20 20 20
17 17 16 16 16 16 16 16 16 17 17 18 19 18 18 18 18 18 17 17 18 18 18 18 18 19 18 19 19 20 20 20 21 21 21 21 22 23 22 22 22 22 21 22
17 18 16 16 16 17 17 17 17 17 18 18 19 19 18 18 18 18 18 18 19 18 19 19 19 19 19 20 20 20 21 21 21 21 22 22 23 23 23 23 23 23 23 23
18 18 17 16 17 17 17 17 17 18 18 19 19 19 18 18 18 19 19 19 19 20 20 21 20 19 20 21 21 21 23 22 22 22 22 22 23 23 23 23 23 23 23 24
18 17 17 17 17 17 18 18 18 19 19 19 19 19 18 19 19 18 19 19 20 20 21 21 21 21 20 21 21 22 23 23 23 23 23 23 23 24 25 24 24 24 24 25
18 17 17 17 17 18 18 19 20 20 20 19 19 20 20 20 19 19 19 19 20 20 21 21 21 22 22 21 22 23 23 23 24 24 24 24 25 25 25 25 25 25 25 26
19 18 18 18 18 19 20 20 21 22 20 20 20 20 20 20 20 20 20 20 20 21 21 22 22 23 23 23 23 24 24 25 25 25 25 26 26 26 26 26 26 26 25 26
20 19 20 20 20 22 20 20 21 21 22 21 21 21 21 21 22 22 22 22 22 22 22 22 23 23 23 23 23 24 25 26 26 26 26 27 27 27 27 27 28 27 27 27
21 21 21 21 21 22 22 20 21 22 22 21 21 22 22 22 23 23 23 22 22 22 23 23 23 24 24 24 24 24 25 26 26 26 27 27 28 28 28 28 29 28 28 28
22 22 22 22 23 23 22 22 21 23 22 22 22 23 24 23 23 22 22 22 22 23 23 23 24 25 25 25 25 25 25 26 26 27 27 28 27 28 28 28 28 28 28 29
23 23 23 23 24 24 23 22 22 23 22 22 23 24 24 24 24 23 23 23 23 23 24 24 25 25 26 25 25 25 25 26 26 27 27 28 28 28 28 28 28 29 30 30
23 23 24 24 25 24 23 22 23 22 22 23 24 25 25 24 24 25 24 23 23 24 25 25 26 26 26 26 25 25 26 26 27 27 28 28 28 28 28 29 29 30 30 30
24 24 24 25 25 25 24 23 23 22 23 23 24 24 25 25 25 25 26 25 24 24 25 26 27 27 27 27 27 26 27 27 28 28 29 29 29 29 29 29 30 30 31 31
25 26 26 26 25 25 24 24 23 22 23 23 24 25 25 25 25 26 26 26 25 25 25 26 27 28 28 28 28 27 28 28 29 29 29 29 29 30 30 31 31 31 31 31
26 26 26 26 25 25 24 24 23 23 24 24 25 25 25 26 27 27 26 25 26 26 27 27 27 27 27 28 28 28 29 29 30 30 30 30 30 30 30 30 31 30 30 31
25 25 26 26 25 26 25 25 24 24 25 25 25 25 25 26 27 26 26 26 26 27 27 28 28 28 28 28 29 29 29 30 30 30 31 30 31 30 30 30 30 30 30 31
Wind_Direction
248 251 252 253 253 253 253 252 253 255 256 257 256 257 259 263 264 263 263 264 264 265 267 270 269 267 267 266 265 266 265 266 269 275 278 277 279 283 284 285 287 286 286 288
248 252 254 257 257 255 255 254 256 256 254 256 258 261 261 261 264 265 266 266 265 264 266 267 265 264 265 267 267 265 264 267 270 275 280 283 281 284 282 283 285 286 285 286
251 253 256 258 257 256 254 255 256 257 256 256 258 258 261 262 262 264 265 263 263 264 265 264 265 264 264 266 267 267 268 270 274 280 284 286 286 284 282 280 284 284 286 288
251 251 254 257 258 258 257 257 259 259 259 258 258 258 258 260 262 264 264 263 263 263 263 264 263 261 262 265 264 266 269 273 277 280 281 281 285 283 280 281 282 282 286 290
253 251 253 258 258 259 260 260 260 261 261 262 261 260 259 261 263 264 264 263 264 264 264 265 263 260 262 263 264 266 269 272 275 278 279 280 281 280 280 282 282 281 285 289
253 252 253 256 259 260 262 260 259 259 261 262 262 261 260 262 264 266 265 265 265 264 265 266 264 264 264 265 265 266 270 272 275 277 278 278 280 279 280 281 283 284 285 287
254 254 255 258 260 260 261 260 261 262 261 262 261 262 263 264 265 265 267 265 263 264 265 266 266 267 266 265 268 269 270 271 274 276 278 277 279 280 281 281 282 282 283 286
255 255 256 258 259 260 258 258 258 261 262 262 263 264 265 266 266 267 267 265 264 263 264 264 265 267 268 268 269 271 272 272 273 274 277 277 279 281 282 281 281 282 283 284
256 254 255 256 259 259 258 257 258 260 263 263 263 265 266 267 268 268 267 264 263 263 263 263 264 266 267 268 270 271 272 272 271 272 274 275 278 280 281 282 282 282 283 284
256 255 255 258 261 261 260 260 259 261 263 265 267 268 267 270 270 269 268 265 263 263 262 262 265 266 266 267 268 272 273 273 271 270 272 274 276 279 280 280 280 281 282 284
256 257 256 257 260 261 260 258 259 261 263 265 269 271 271 272 270 270 267 264 263 261 260 261 263 266 266 265 267 270 272 272 273 272 272 274 275 277 278 279 279 280 281 283
258 259 260 260 259 258 258 258 258 259 262 263 266 271 272 271 269 268 266 265 264 262 261 261 263 264 265 267 267 268 270 271 272 273 274 274 277 277 277 277 278 279 280 282
261 259 262 262 262 261 259 259 258 259 261 263 265 270 273 272 269 266 265 265 266 264 264 264 264 264 264 266 267 268 269 271 272 274 274 274 276 277 277 276 277 277 278 281
261 261 262 265 267 266 262 260 259 260 263 264 266 269 269 272 271 267 265 265 267 266 266 268 269 268 267 268 269 268 268 270 271 273 274 273 275 277 277 276 276 277 278 280
262 260 260 262 264 265 263 261 260 261 263 265 266 267 269 270 271 269 268 268 269 270 270 270 270 272 272 270 269 269 269 269 270 272 274 275 276 278 279 277 276 277 279 281
261 262 261 262 263 264 264 262 262 263 264 264 266 268 269 269 269 269 269 269 270 271 271 271 273 273 275 272 269 269 269 270 271 271 273 276 277 279 280 279 278 278 280 282
260 263 262 263 264 266 266 268 266 265 264 263 265 269 270 269 268 268 269 270 270 270 271 272 274 275 275 274 272 270 269 270 270 270 272 276 278 280 280 279 279 279 281 282
261 264 263 264 264 266 272 271 269 266 265 264 267 268 269 271 270 271 272 272 271 269 270 272 273 275 275 275 275 274 272 272 271 271 273 275 276 278 280 280 279 279 280 282
261 264 266 266 268 268 269 269 269 268 267 267 269 269 269 271 272 273 273 272 272 271 271 272 273 275 275 274 273 274 274 273 273 273 274 275 276 277 279 280 280 279 280 283
262 265 267 268 268 270 270 272 272 270 268 269 270 270 270 271 272 273 273 272 271 271 272 272 272 272 272 273 273 274 275 275 275 276 275 276 277 278 279 280 279 280 282 283
263 265 267 268 270 270 271 273 272 271 273 272 271 271 272 273 275 275 276 274 270 270 271 272 273 273 273 274 275 275 276 276 276 276 277 277 277 278 278 278 280 281 282 283
263 266 268 269 270 271 272 272 272 273 273 273 272 272 272 273 274 275 276 274 271 271 273 273 274 275 275 275 275 275 276 277 276 277 278 278 278 279 279 279 282 283 282 283
263 266 268 269 271 272 272 273 273 273 273 273 273 274 273 274 274 275 275 275 274 274 274 273 274 275 274 275 275 275 276 277 278 279 278 279 279 280 280 280 282 283 284 285
264 267 268 269 271 272 271 272 271 269 270 271 272 273 275 276 277 277 277 275 274 275 274 274 273 274 275 276 275 276 277 278 279 279 279 280 280 281 282 281 282 284 284 286
266 267 267 268 270 270 270 272 272 271 273 274 275 275 276 278 279 278 277 277 276 276 277 278 277 276 277 277 278 278 278 278 279 279 279 280 281 283 283 283 284 286 286 287
265 267 267 267 268 270 271 271 272 273 274 276 278 278 279 280 279 278 277 276 277 278 279 279 279 279 278 278 279 279 279 279 280 279 278 279 280 282 284 285 286 286 287 286
Height
5849 5851 5851 5851 5852 5853 5853 5854 5855 5856 5856 5857 5857 5858 5858 5858 5858 5858 5858 5858 5858 5858 5858 5857 5857 5857 5856 5856 5855 5855 5855 5854 5854 5853 5853 5852 5851 5850 5849 5848 5847 5846 5845 5844
5847 5847 5848 5848 5849 5850 5850 5851 5852 5853 5853 5853 5854 5854 5855 5855 5855 5855 5855 5855 5855 5855 5855 5855 5854 5854 5854 5854 5853 5853 5852 5852 5851 5851 5850 5849 5848 5848 5847 5846 5845 5844 5843 5842
5843 5845 5845 5845 5846 5846 5847 5847 5848 5849 5850 5850 5851 5851 5851 5851 5851 5851 5851 5852 5851 5851 5852 5852 5851 5851 5851 5851 5850 5850 5850 5849 5848 5848 5847 5846 5845 5844 5843 5843 5842 5841 5840 5839
5840 5841 5841 5842 5842 5843 5843 5844 5844 5845 5846 5846 5848 5848 5848 5847 5847 5847 5848 5848 5848 5848 5848 5848 5848 5848 5848 5848 5847 5847 5847 5846 5845 5845 5844 5843 5842 5841 5841 5840 5839 5838 5837 5835
5837 5838 5838 5839 5839 5839 5840 5840 5841 5841 5842 5843 5843 5843 5844 5843 5843 5844 5844 5844 5844 5844 5844 5844 5844 5844 5844 5844 5844 5843 5843 5842 5842 5841 5841 5840 5839 5838 5837 5836 5835 5834 5833 5832
5833 5834 5834 5835 5835 5836 5836 5837 5837 5837 5838 5839 5839 5839 5840 5839 5840 5840 5840 5840 5840 5839 5839 5840 5840 5840 5840 5840 5840 5840 5839 5839 5838 5838 5837 5836 5835 5835 5834 5833 5832 5831 5829 5828
5829 5829 5830 5831 5831 5831 5832 5833 5834 5833 5834 5835 5835 5835 5836 5835 5835 5835 5835 5835 5835 5835 5835 5835 5835 5835 5835 5836 5836 5835 5835 5835 5835 5834 5833 5833 5832 5831 5830 5829 5828 5827 5825 5824
5825 5826 5826 5827 5827 5828 5828 5829 5830 5830 5830 5831 5830 5830 5831 5831 5831 5830 5831 5831 5831 5831 5831 5831 5831 5831 5831 5831 5831 5831 5831 5830 5830 5830 5829 5828 5827 5826 5826 5824 5823 5822 5821 5820
5820 5821 5822 5822 5822 5823 5823 5824 5825 5825 5825 5826 5826 5826 5826 5825 5825 5825 5826 5826 5826 5826 5826 5826 5826 5826 5826 5826 5826 5826 5826 5825 5825 5825 5824 5823 5823 5822 5821 5820 5819 5818 5817 5816
5815 5817 5817 5817 5818 5818 5819 5819 5820 5820 5820 5820 5821 5821 5822 5821 5820 5821 5820 5820 5821 5821 5821 5821 5821 5821 5821 5821 5821 5820 5820 5820 5819 5819 5819 5818 5817 5816 5816 5815 5814 5813 5812 5811
5810 5812 5813 5813 5813 5814 5814 5815 5814 5815 5815 5816 5816 5819 5816 5816 5815 5815 5815 5815 5815 5815 5815 5815 5815 5815 5815 5815 5815 5815 5815 5814 5814 5813 5813 5812 5812 5811 5810 5809 5808 5807 5806 5805
5805 5806 5807 5808 5808 5808 5808 5809 5810 5810 5810 5810 5811 5814 5811 5811 5810 5809 5809 5809 5809 5810 5810 5810 5810 5810 5810 5809 5809 5809 5809 5808 5808 5807 5807 5806 5806 5805 5804 5803 5803 5802 5801 5799
5799 5800 5801 5802 5804 5804 5803 5803 5804 5804 5804 5805 5805 5808 5805 5805 5804 5804 5804 5804 5804 5804 5804 5804 5804 5804 5804 5803 5803 5803 5803 5802 5802 5801 5801 5800 5800 5799 5798 5797 5796 5795 5794 5793
5793 5794 5796 5798 5797 5797 5798 5798 5798 5798 5798 5799 5800 5800 5800 5799 5798 5798 5798 5798 5798 5798 5798 5798 5798 5798 5797 5797 5797 5797 5796 5796 5795 5795 5794 5794 5793 5792 5792 5791 5790 5789 5788 5787
5787 5789 5790 5790 5791 5791 5791 5792 5792 5792 5793 5793 5794 5794 5794 5793 5792 5792 5792 5792 5792 5791 5791 5791 5791 5791 5791 5790 5790 5790 5789 5789 5789 5788 5788 5787 5787 5786 5785 5784 5783 5782 5781 5780
5782 5783 5784 5785 5785 5785 5785 5786 5786 5786 5786 5787 5787 5788 5788 5787 5786 5786 5786 5785 5785 5785 5785 5785 5784 5784 5784 5783 5783 5783 5783 5782 5782 5781 5781 5780 5780 5779 5778 5777 5776 5775 5773 5772
5777 5778 5778 5779 5779 5779 5780 5781 5780 5780 5781 5781 5781 5782 5781 5780 5780 5779 5779 5779 5778 5778 5778 5778 5778 5777 5777 5776 5776 5775 5775 5775 5774 5774 5773 5773 5772 5771 5770 5769 5768 5767 5766 5765
5771 5771 5772 5773 5773 5773 5776 5774 5773 5773 5774 5774 5774 5774 5774 5774 5773 5773 5772 5772 5772 5771 5771 5771 5770 5770 5769 5769 5768 5767 5767 5767 5766 5766 5766 5765 5764 5764 5763 5761 5760 5759 5758 5757
5765 5766 5766 5766 5766 5766 5768 5767 5767 5767 5767 5767 5767 5767 5767 5766 5766 5766 5765 5764 5764 5764 5763 5763 5763 5762 5761 5761 5760 5760 5759 5759 5758 5758 5757 5757 5756 5755 5754 5753 5752 5751 5750 5748
5759 5759 5760 5759 5759 5759 5762 5760 5759 5760 5760 5761 5760 5759 5759 5759 5759 5760 5758 5757 5757 5756 5756 5755 5755 5754 5753 5753 5752 5752 5751 5751 5750 5749 5749 5748 5747 5747 5746 5745 5743 5742 5741 5739
5752 5752 5752 5752 5751 5752 5753 5753 5753 5754 5755 5753 5752 5752 5751 5751 5751 5751 5750 5749 5749 5748 5748 5747 5746 5745 5745 5745 5744 5743 5743 5742 5742 5741 5740 5739 5739 5738 5737 5736 5735 5733 5732 5731
5745 5745 5745 5745 5745 5747 5746 5746 5746 5746 5745 5745 5744 5744 5744 5743 5743 5742 5742 5741 5741 5740 5740 5739 5738 5737 5737 5736 5736 5735 5735 5734 5733 5732 5731 5731 5730 5729 5728 5727 5725 5724 5723 5721
5738 5739 5738 5739 5740 5739 5738 5738 5738 5738 5737 5737 5736 5736 5735 5735 5734 5734 5733 5732 5732 5732 5731 5730 5729 5729 5728 5728 5727 5727 5726 5725 5724 5724 5723 5722 5721 5720 5718 5717 5716 5715 5713 5711
5731 5731 5731 5731 5731 5731 5731 5731 5731 5730 5730 5729 5728 5728 5727 5727 5726 5725 5725 5724 5724 5723 5722 5721 5721 5720 5719 5719 5718 5718 5717 5716 5715 5715 5714 5713 5712 5710 5709 5708 5706 5705 5703 5702
5723 5723 5722 5723 5723 5723 5723 5723 5723 5722 5722 5721 5721 5720 5719 5719 5718 5717 5716 5716 5715 5715 5714 5713 5712 5711 5711 5710 5709 5709 5708 5707 5706 5705 5704 5703 5702 5701 5700 5698 5697 5695 5694 5692
5715 5715 5715 5715 5715 5715 5715 5715 5715 5715 5714 5714 5713 5712 5711 5710 5709 5708 5707 5707 5706 5706 5705 5704 5704 5703 5702 5701 5700 5700 5699 5697 5696 5696 5695 5694 5693 5692 5691 5689 5688 5686 5684 5682